www.pogodaiklimat.ru

Погода и климат >> Архив погоды >> Китай >> Внутренняя Монголия >> Мандал


ПОГОДА в Мандале

  • Прогноз погоды в Мандале
  • Монитор погоды в Мандале

АРХИВ ПОГОДЫ в Мандале

Время (UTC), дата Ветер
(напр.,м/с)
 
Видим.   Явления Облачность Т
(С)
Тd
(С)
f
(%)
Тe
(С)
Тes
(С)
Комфортность P
(гПа)
Po
(гПа)
Тmin
(С)
Tmax
(С)
R
(мм)
R24
(мм)
S
(см)
03 17.07 ЮВ 2 19 км ясно +22.8 +15.1 62 +27 +43 душно 1005.9 873.4
06 17.07 В 2 30 км 3/3 600 м
[]
+25.6 +13.5 47 +28 +40 жарко 1005.1 873.0 +16.2
09 17.07 В 4 30 км 9/9 600 м
[]
+26.7 +12.7 42 +28 +29 жарко 1004.4 873.7
12 17.07 В 4 30 км 9/9 600 м
[]
+24.7 +13.9 51 +27 +27 жарко 1004.5 872.3
15 17.07 СВ 1 30 км ?/? +22.6 +14.4 60 +26 +26 жарко 1005.1 872.6
18 17.07 ЮВ 1 30 км ?/? +20.9 +14.1 65 +25 +25 комфорт 1004.6 873.4 +27.1
21 17.07 СВ 1 15 км н/о +19.5 +14.3 72 +22 +22 комфорт 1004.2 870.6
00 18.07 Ю 1 23 км 4/4
[]
+23.7 +16.0 62 +27 +30 жарко 1003.8 873.1
03 18.07 ЮВ 2 12 км 9/9 1000 м
[]
+27.7 +16.0 49 +31 +33 душно 1003.2 873.1
06 18.07 Ю 2 16 км 9/9 600 м
[]
+29.4 +12.4 35 +30 +32 жарко 1001.9 871.8 +19.0
09 18.07 Ю 3 23 км 9/9 600 м
[]
+29.9 +14.1 38 +32 +32 жарко 1000.5 871.6
12 18.07 Ю 2 н/о 9/9 600 м
[]
+27.7 +13.3 41 +29 +29 жарко 999.9 870.3
15 18.07 З 2 22 км н/о +25.0 +14.2 51 +27 +27 жарко 1000.2 869.4
18 18.07 З 1 13 км ?/? +23.2 +15.8 63 +28 +28 душно 999.8 870.5 +30.1
21 18.07 З 2 7000 м н/о +22.3 +15.9 67 +26 +26 жарко 999.1 867.3
00 19.07 СЗ 8 30 км 10/10 1000 м
[]
+20.8 +14.0 65 +23 +23 комфорт 1000.7 870.4
03 19.07 ЮЗ 2 20 км слаб. дождь 10/10 600 м
[]
+19.8 +16.6 82 +23 +23 комфорт 1002.0 868.8
06 19.07 Ю 3 30 км {дождь} 5/5 600 м
[]
+22.6 +15.7 65 +27 +34 душно 1000.6 869.8 +19.0 0.5
09 19.07 ЮЗ 4 30 км 3/3 600 м
[]
+25.9 +14.1 48 +28 +31 жарко 997.9 867.7
12 19.07 З 4
{18}
30 км слаб. дождь 8/8 600 м
[]
+21.9 +16.8 73 +26 +26 душно 999.6 868.3 2
15 19.07 З 3 30 км н/о +21.0 +16.8 77 +25 +25 комфорт 1001.2 868.6
18 19.07 З 5 28 км ?/? +19.9 +16.3 80 +22 +22 комфорт 1001.2 869.6 +26.7
21 19.07 З 1 21 км н/о +17.6 +15.2 86 +19 +19 1001.6 867.5
00 20.07 З 5 30 км ясно +22.7 +16.3 67 +27 +30 душно 1001.9 870.7
03 20.07 З 3 30 км ясно +29.1 +12.1 35 +30 +44 жарко 1000.7 871.5
06 20.07 ЮЗ 3 30 км ясно +31.8 +6.8 21 +30 +45 жарко 999.0 869.6 +17.2
09 20.07 СЗ 2 30 км 3/3 600 м
[]
+33.2 +4.0 16 +31 +35 жарко 998.2 870.9
12 20.07 СЗ 1 18 км 5/5 600 м
[]
+29.9 +7.8 25 +29 +29 жарко 998.5 869.3
15 20.07 З 6 30 км н/о +28.6 +3.5 20 +27 +27 жарко 997.8 868.7
18 20.07 З 3 30 км ?/? +22.7 +8.4 40 +24 +24 комфорт 999.1 870.2 +33.8
21 20.07 З 3 30 км н/о +21.1 +10.6 51 +23 +23 комфорт 999.0 866.7
00 21.07 З 3 30 км 9/9 1000 м
[]
+25.9 +12.0 42 +27 +28 жарко 999.6 870.9
03 21.07 З 6 30 км 4/4 600 м
[]
+33.1 +7.9 21 +32 +35 жарко 997.6 870.3
06 21.07 Ю 6 30 км 5/5 600 м
[]
+35.1 +5.5 16 +33 +36 жарко 997.3 869.3 +20.9
09 21.07 В 4 30 км в посл. час дождь 9/9 600 м
[]
+26.3 +14.1 47 +29 +29 жарко 1000.5 870.2
12 21.07 С 4 30 км {дождь} 10/10 600 м
[]
+25.3 +9.6 37 +26 +26 жарко 1001.5 871.7 5
15 21.07 ЮЗ 3 30 км н/о +23.3 +12.6 51 +26 +26 жарко 999.1 867.7
18 21.07 Ю 1 30 км ?/? +21.4 +14.6 65 +24 +24 комфорт 998.7 870.3 +35.3
21 21.07 З 2 18 км н/о +21.5 +15.6 69 +25 +25 комфорт 1000.0 867.8
00 22.07 З 3 30 км в посл. час дождь 10/10 600 м
[]
+20.7 +14.4 67 +24 +24 комфорт 1000.9 870.1 0.0
03 22.07 ЮЗ 3 21 км слаб. дождь 10/10 1000 м
[]
+22.0 +14.6 63 +25 +25 комфорт 1001.3 869.1
06 22.07 Ю 5 30 км в посл. час дождь 9/9 1000 м
[]
+21.8 +13.7 60 +25 +26 комфорт 1000.5 869.2 +20.2 0.1
09 22.07 Ю 3 19 км в посл. час дождь 9/9 1000 м
[]
+21.7 +13.1 58 +24 +25 комфорт 999.0 867.0
12 22.07 Ю 1 14 км {дождь} 3/3 1000 м
[]
+21.1 +14.0 64 +24 +24 комфорт 999.3 867.8
15 22.07 ЮВ 1 28 км н/о +18.2 +14.7 80 +20 +20 999.4 865.8
18 22.07 З 3 11 км ?/? +18.3 +15.7 85 +19 +19 998.7 867.0 +23.1
21 22.07 З 2 15 км н/о +18.3 +15.0 81 +19 +19 998.9 865.4
00 23.07 З 5 24 км ясно +22.1 +12.1 53 +24 +27 комфорт 998.7 867.6
03 23.07 З 5 30 км ясно +26.6 +12.3 41 +28 +37 жарко 998.2 868.3
06 23.07 З 6 30 км ясно +29.5 +6.8 24 +28 +35 жарко 997.3 867.3 +17.0
09 23.07 СЗ 8 30 км 3/3 600 м
[]
+29.8 +6.5 23 +29 +29 жарко 997.0 868.5
12 23.07 СЗ 2 30 км 5/5 1000 м
[]
+27.1 +6.5 27 +26 +26 жарко 997.1 867.4
15 23.07 З 6 30 км н/о +25.7 +5.3 27 +25 +25 комфорт 998.5 868.2
18 23.07 З 4 22 км ?/? +21.4 +7.6 41 +22 +22 комфорт 999.1 869.5 +30.1
21 23.07 З 2 23 км ?/? +19.7 +9.3 51 +21 +21 комфорт 999.5 866.6

 

Местоположение метеостанции Мандал (Внутренняя Монголия, Китай): широта 42.53 долгота 110.13 высота над уровнем моря 1223 м.

В архиве по умолчанию представлена погода в Мандале за последнюю неделю. Архивные данные за месяц целиком и за предыдущие месяцы, начиная с января 2011 года, Вы можете получить, выбрав интересующий диапазон дат из раскрывающегося списка и нажав кнопку "Ввод!".


*Определитесь, кто Вы:
робот инопланетянин человек

Внимание! Время в таблицах - всемирное. Для получения местного времени необходимо прибавить поправку, которая равна 8 ч.

Смотрите также архив погоды в соседних городах и на ближайших метеорологических станциях:

Погода в Дархан-Мумингане (Внутренняя Монголия, Китай) (96 км)
Погода в Хатанбулаге (Монголия) (104 км)
Погода в Хэй Лю Чжэнь (Внутренняя Монголия, Китай) (171 км)
Погода в Замун-Ууде (Монголия) (196 км)
Погода в Эрэн-Хото (Внутренняя Монголия, Китай) (196 км)
Погода в Чжурихе Чжень (Внутренняя Монголия, Китай) (228 км)
Погода в Хух-Хото (Внутренняя Монголия, Китай) (230 км)
Погода в Ханбогде (Монголия) (253 км)
Погода в Сайншанде (Монголия) (264 км)
Погода в Цзинине (Шаньдун, Китай) (295 км)

Пояснения к столбцам:

Ветер - указаны скорость ветра в м/с - средняя за 10 мин, порывы в срок и между сроками (в фигурных скобках) и направление, откуда дует ветер: С - северный, СВ - северо-восточный, В - восточный, ЮВ - юго-восточный, Ю - южный, ЮЗ - юго-западный, З - западный, СЗ - северо-западный.
Видимость - горизонтальная дальность видимости в метрах или километрах. При видимости от 1 до 10 км при отсутствии осадков обычно наблюдается дымка, при ухудшении видимости до 1 км и менее - туман. В сухую погоду видимость может ухудшаться дымом, пылью или мглою.
Явления - указаны атмосферные явления, наблюдавшиеся в срок или в последний час перед сроком; фигурными скобками обозначены явления, наблюдавшиеся между сроками (за 1-3 часа до срока); квадратными скобками обозначены град или гололедные отложения с указанием их диаметра в мм.
Облачность - указаны через наклонную черту общая и нижняя облачность в баллах и высота нижней границы облаков в метрах; квадратными скобками обозначены формы облаков: Ci - перистые, Cs - перисто-слоистые, Cc - перисто-кучевые, Ac - высококучевые, As - высокослоистые, Sc - слоисто-кучевые, Ns - слоисто-дождевые, Cu - кучевые, Cb - кучево-дождевые. Подробнее классификацию облаков см. в Атласе облаков (PDF).
T - Температура воздуха - температура, измеренная на высоте 2 м над землей.
Td - Температура точки росы - температура, при понижении до которой содержащийся в воздухе водяной пар достигнет насыщения.
f - Относительная влажность воздуха - влажноcть воздуха, измеренная на высоте 2 м над землей.
Te - Эффективная температура - температура, которую ощущает одетый по сезону человек в тени. Характеристика душности погоды. При расчете учитывается влияние влажности воздуха и скорости ветра на теплоощущения человека.
Tes - Эффективная температура на солнце - температура, которую ощущает человек, с поправкой на солнечный нагрев. Характеристика знойности погоды. Зависит от высоты солнца над горизонтом, облачности и скорости ветра. Ночью, в пасмурную погоду, а также при ветре 12 м/с и более поправка равна нулю.
P - Атмосферное давление - приведенное к уровню моря атмосферное давление.
Po - Атмосферное давление - измеренное на уровне метеостанции атмосферное давление.
Tmin - Минимальная температура - минимум температуры воздуха на высоте 2 м над землей.
Tmax - Максимальная температура - максимум температуры воздуха на высоте 2 м над землей.
R - Количество осадков - Количество выпавших осадков за период времени, мм. При наведении курсора мыши на число - период времени, за который выпало указанное количество осадков.
R24 - Количество осадков - Количество выпавших осадков за 24 часа, мм.
S - Снежный покров - Высота снежного покрова, см. При наведении курсора мыши на число - состояние снежного покрова и степень покрытия местности в баллах.